FW2512 Weather Reports


time (UTC)temp
C
wind
direction
speed
KPH
gust
KPH
rain 1hr
cm
rain 24hr
cm
rain mn
cm
humidity
%
barometer
mb
20260508184531 20 338 3.2 14.5 0.00 0.00 0.00 31 1016.9
20260508183034 19 168 4.8 16.1 0.00 0.00 0.00 33 1017.1
20260508181522 20 180 4.8 11.3 0.00 0.00 0.00 33 1017.2
20260508180020 20 238 8.0 16.1 0.00 0.00 0.00 33 1017.5
20260508174518 19 154 4.8 11.3 0.00 0.00 0.00 32 1017.5
20260508173016 18 322 4.8 16.1 0.00 0.00 0.00 37 1017.8
20260508171517 18 198 4.8 17.7 0.00 0.00 0.00 33 1017.7
20260508170011 18 182 4.8 14.5 0.00 0.00 0.00 33 1018.1
20260508164519 18 216 3.2 9.7 0.00 0.00 0.00 36 1018.3
20260508163014 18 176 4.8 11.3 0.00 0.00 0.00 31 1018.3
20260508161509 17 227 8.0 22.5 0.00 0.00 0.00 34 1018.6
20260508160005 17 234 6.4 9.7 0.00 0.00 0.00 37 1018.9
20260508154504 17 338 3.2 9.7 0.00 0.00 0.00 37 1018.9
20260508153004 17 319 3.2 9.7 0.00 0.00 0.00 39 1019.0
20260508151602 17 132 1.6 11.3 0.00 0.00 0.00 38 1018.9
20260508150057 16 298 0.0 8.0 0.00 0.00 0.00 40 1018.9
20260508144557 16 227 3.2 6.4 0.00 0.00 0.00 40 1019.0
20260508143058 16 160 8.0 12.9 0.00 0.00 0.00 39 1019.3
20260508141603 16 126 3.2 12.9 0.00 0.00 0.00 40 1019.3
20260508140048 15 175 4.8 11.3 0.00 0.03 0.00 37 1019.3
20260508134545 15 166 1.6 11.3 0.00 0.03 0.00 40 1019.3
20260508133041 15 180 0.0 0.0 0.00 0.03 0.00 44 1019.3
20260508131546 14 294 0.0 0.0 0.00 0.03 0.00 54 1019.3
20260508130039 13 17 0.0 0.0 0.00 0.10 0.00 54 1019.2
20260508124536 11 340 0.0 1.6 0.00 0.10 0.00 61 1019.0
20260508123027 10 68 0.0 3.2 0.00 0.10 0.00 68 1018.8
20260508121524 8 61 0.0 0.0 0.00 0.10 0.00 80 1018.7
20260508120021 7 22 0.0 0.0 0.00 0.28 0.00 81 1018.5
20260508114518 7 28 0.0 0.0 0.00 0.28 0.00 81 1018.3
20260508113020 7 26 0.0 0.0 0.00 0.28 0.00 80 1017.9
20260508111520 6 23 0.0 0.0 0.00 0.28 0.00 79 1017.8
20260508110018 6 25 0.0 0.0 0.00 0.33 0.00 78 1017.5
20260508104615 6 27 0.0 0.0 0.00 0.33 0.00 77 1017.3
20260508103012 6 32 0.0 0.0 0.00 0.33 0.00 75 1017.0
20260508101515 6 35 0.0 0.0 0.00 0.33 0.00 74 1016.6
20260508100012 7 33 0.0 0.0 0.00 0.36 0.33 73 1016.3
20260508094510 7 32 0.0 0.0 0.00 0.36 0.33 72 1016.3
20260508093009 7 32 0.0 0.0 0.00 0.36 0.33 71 1016.2
20260508091601 7 31 0.0 0.0 0.00 0.36 0.33 71 1016.2
20260508090115 7 29 0.0 0.0 0.00 0.36 0.33 71 1016.1
20260508084559 7 27 0.0 3.2 0.00 0.38 0.33 71 1015.8
20260508083100 7 26 0.0 3.2 0.00 0.38 0.33 71 1015.6
20260508081512 7 27 0.0 0.0 0.00 0.38 0.33 71 1015.5
20260508080011 7 27 0.0 0.0 0.00 0.38 0.33 71 1015.5
20260508074511 7 27 0.0 3.2 0.00 0.38 0.33 71 1015.5
20260508073007 7 32 0.0 0.0 0.00 0.38 0.33 70 1015.4
20260508071550 8 34 0.0 0.0 0.00 0.38 0.33 70 1015.3
20260508070048 8 36 0.0 0.0 0.00 0.41 0.33 69 1015.3
20260508064545 8 36 0.0 3.2 0.00 0.41 0.33 68 1015.2
20260508063057 8 89 0.0 1.6 0.00 0.41 0.33 67 1015.1
20260508061550 9 88 0.0 0.0 0.00 0.41 0.33 67 1015.1
20260508060049 9 87 0.0 0.0 0.00 0.53 0.33 66 1015.2
20260508054547 9 90 0.0 0.0 0.00 0.53 0.33 66 1015.1
20260508053048 9 83 0.0 1.6 0.00 0.53 0.33 66 1015.0
20260508051542 10 75 0.0 1.6 0.00 0.53 0.33 65 1015.0
20260508050041 10 74 0.0 1.6 0.00 0.69 0.33 65 1014.9
20260508044537 10 74 0.0 1.6 0.00 0.69 0.33 65 1014.8
20260508043052 10 77 0.0 0.0 0.00 0.69 0.33 65 1014.5
20260508041528 10 78 0.0 0.0 0.00 0.69 0.33 64 1014.5
20260508040034 11 80 0.0 0.0 0.00 0.69 0.33 63 1014.8
20260508034525 11 76 0.0 4.8 0.00 0.69 0.33 62 1014.6
20260508033021 11 76 0.0 0.0 0.00 0.69 0.33 61 1014.7
20260508031523 12 81 0.0 0.0 0.00 0.69 0.33 60 1014.6
20260508030025 12 79 0.0 4.8 0.00 0.86 0.33 57 1014.6
20260508024518 12 313 0.0 0.0 0.00 0.86 0.33 55 1014.2
20260508023015 13 312 0.0 0.0 0.00 0.86 0.33 55 1014.0
20260508021513 13 292 0.0 0.0 0.00 0.86 0.33 52 1013.9
20260508020012 13 144 0.0 0.0 0.00 1.07 0.33 52 1013.5
20260508014510 14 22 0.0 0.0 0.00 1.07 0.33 51 1013.3
20260508013003 15 19 0.0 3.2 0.00 1.07 0.33 47 1013.0
20260508011514 15 61 1.6 8.0 0.00 1.07 0.33 46 1012.8
20260508010010 15 214 1.6 4.8 0.00 1.32 0.33 48 1012.5
20260508004509 16 216 1.6 6.4 0.00 1.32 0.33 48 1012.2
20260508003006 16 35 0.0 6.4 0.00 1.32 0.33 47 1011.9
20260508001613 16 325 3.2 12.9 0.00 1.32 0.33 45 1011.6
20260508000054 17 326 4.8 22.5 0.00 1.32 0.33 44 1011.3
20260507234553 18 332 3.2 6.4 0.00 1.63 0.33 45 1011.4
20260507233052 19 331 0.0 6.4 0.00 1.63 0.33 43 1011.0
20260507231502 19 360 4.8 19.3 0.00 1.63 0.33 44 1010.9
20260507230005 20 310 4.8 9.7 0.00 1.65 0.33 43 1010.7
20260507224500 21 341 6.4 14.5 0.00 1.65 0.33 44 1010.0
20260507223100 21 360 9.7 19.3 0.00 1.65 0.33 43 1009.6
20260507221545 22 24 4.8 22.5 0.00 1.65 0.33 43 1009.1
20260507220047 23 337 4.8 16.1 0.00 1.65 0.33 44 1008.8
20260507214545 23 360 6.4 19.3 0.00 1.65 0.33 43 1008.6
20260507213044 23 355 11.3 19.3 0.00 1.65 0.33 43 1008.4
20260507211543 24 298 9.7 19.3 0.00 1.65 0.33 44 1008.2
20260507210041 24 346 8.0 17.7 0.00 1.65 0.33 45 1008.1
20260507204544 24 319 8.0 14.5 0.00 1.65 0.33 47 1008.0
20260507203038 23 311 6.4 14.5 0.00 1.65 0.33 58 1007.8
20260507201542 24 194 6.4 14.5 0.00 1.65 0.33 60 1007.8
20260507200035 23 14 3.2 9.7 0.00 1.65 0.33 65 1008.0
20260507194534 23 5 3.2 12.9 0.00 1.65 0.33 65 1008.0
20260507193033 23 166 8.0 14.5 0.00 1.65 0.33 63 1008.0
20260507191529 23 290 3.2 12.9 0.00 1.65 0.33 64 1008.5
20260507190030 22 197 6.4 12.9 0.00 1.65 0.33 65 1008.6